Weather History for KSUT - March, 2013

Change the Weather History Date:

Thursday, March 7, 2013

  Actual Average (KILM) Record (KILM)
Temperature  
Mean Temperature 43 °F 53 °F  
Max Temperature 55 °F 64 °F 87 °F (1974)
Min Temperature 32 °F 42 °F 20 °F (1960)
Degree Days  
Heating Degree Days 22 13  
Month to date heating degree days 93  
Since 1 July heating degree days 2022  
Cooling Degree Days 0 0  
Month to date cooling degree days 0  
Year to date cooling degree days 5  
Moisture  
Dew Point 27 °F    
Average Humidity 56    
Maximum Humidity 78    
Minimum Humidity 34    
Precipitation  
Precipitation 0.00 in 0.15 in 1.80 in (1944)
Month to date precipitation 0.97  
Year to date precipitation 8.35  
Snow  
Snow 0.00 in 0.00 in 0.30 in (1962)
Month to date snowfall 0.0  
Since 1 July snowfall 1.5  
Snow Depth -    
Sea Level Pressure  
Sea Level Pressure 30.12 in    
Wind  
Wind Speed 8 mph (NW)    
Max Wind Speed 15 mph    
Max Gust Speed 24 mph    
Visibility 10 miles    
Events      
T = Trace of Precipitation, MM = Missing Value Source: NWS Daily Summary

Daily Weather History Graph

Daily Weather History Graph

Search for Another Location

Airport or City:

Trip Planner

Search our weather history database for the weather conditions in past years. The results will help you decide how hot, cold, wet, or windy it might be!

Date:

Astronomy

Mar. 07, 2013 Rise Set
Actual Time 6:33 AM EST 6:13 PM EST
Civil Twilight 6:08 AM EST 6:38 PM EST
Nautical Twilight 5:39 AM EST 7:07 PM EST
Astronomical Twilight 5:10 AM EST 7:36 PM EST
Moon 3:21 AM EST (3/7) 2:08 PM EST (3/7)
Length of Visible Light 12h 30m
Length of Day
11h 40m
Waning Crescent, 20% of the Moon is Illuminated
Mar 7
Waning Crescent
Mar 11
New
Mar 19
First Quarter
Mar 27
Full
Apr 3
Last Quarter

Hourly Weather History & Observations

Time (EST) Temp. Windchill Dew Point Humidity Pressure Visibility Wind Dir Wind Speed Gust Speed Precip Events Conditions
12:15 AM 39.7 °F 34.9 °F 26.6 °F 59% 30.01 in 10.0 mi NW 6.9 mph - N/A   Clear
12:35 AM 39.4 °F 34.5 °F 26.6 °F 60% 30.02 in 10.0 mi WNW 6.9 mph - N/A   Clear
12:55 AM 38.7 °F 34.3 °F 26.6 °F 62% 30.03 in 10.0 mi WNW 5.8 mph - N/A   Clear
1:15 AM 37.9 °F 33.5 °F 26.8 °F 64% 30.03 in 10.0 mi West 5.8 mph - N/A   Clear
1:35 AM 37.4 °F 32.1 °F 27.1 °F 66% 30.04 in 10.0 mi WNW 6.9 mph - N/A   Clear
1:55 AM 36.7 °F 30.5 °F 26.8 °F 67% 30.05 in 10.0 mi WNW 8.1 mph - N/A   Clear
2:15 AM 36.7 °F 29.4 °F 26.6 °F 67% 30.05 in 10.0 mi WNW 10.4 mph - N/A   Clear
2:35 AM 36.5 °F 29.7 °F 26.6 °F 67% 30.04 in 10.0 mi NW 9.2 mph - N/A   Clear
2:55 AM 36.0 °F 29.6 °F 26.6 °F 69% 30.04 in 10.0 mi NW 8.1 mph - N/A   Clear
3:15 AM 35.6 °F 29.9 °F 26.4 °F 69% 30.05 in 10.0 mi NW 6.9 mph - N/A   Clear
3:35 AM 35.2 °F 28.1 °F 26.4 °F 70% 30.06 in 10.0 mi NW 9.2 mph - N/A   Clear
3:55 AM 34.9 °F 29.0 °F 26.4 °F 71% 30.06 in 10.0 mi NW 6.9 mph - N/A   Clear
4:15 AM 34.7 °F 28.1 °F 26.4 °F 72% 30.06 in 10.0 mi NW 8.1 mph - N/A   Clear
4:35 AM 34.7 °F 28.1 °F 26.2 °F 71% 30.07 in 10.0 mi NW 8.1 mph - N/A   Clear
4:55 AM 34.3 °F 28.4 °F 26.2 °F 72% 30.08 in 10.0 mi NW 6.9 mph - N/A   Clear
5:15 AM 33.8 °F 28.6 °F 26.2 °F 74% 30.08 in 10.0 mi NW 5.8 mph - N/A   Clear
5:35 AM 33.4 °F 27.3 °F 26.4 °F 75% 30.09 in 10.0 mi NW 6.9 mph - N/A   Clear
5:55 AM 33.1 °F 26.1 °F 26.4 °F 77% 30.11 in 10.0 mi WNW 8.1 mph - N/A   Clear
6:15 AM 32.9 °F 26.7 °F 26.2 °F 76% 30.11 in 10.0 mi WNW 6.9 mph - N/A   Clear
6:35 AM 32.4 °F 26.0 °F 26.2 °F 78% 30.12 in 10.0 mi NW 6.9 mph - N/A   Clear
6:55 AM 32.5 °F 25.5 °F 26.2 °F 78% 30.13 in 10.0 mi NW 8.1 mph - N/A   Clear
7:15 AM 33.8 °F 26.4 °F 26.2 °F 74% 30.14 in 10.0 mi NW 9.2 mph - N/A   Clear
7:35 AM 35.6 °F 29.2 °F 26.2 °F 69% 30.15 in 10.0 mi NW 8.1 mph 18.4 mph N/A   Clear
7:55 AM 37.2 °F 29.6 °F 26.6 °F 65% 30.16 in 10.0 mi NW 11.5 mph 18.4 mph N/A   Clear
8:15 AM 38.7 °F 31.8 °F 26.6 °F 62% 30.16 in 10.0 mi North 10.4 mph 23.0 mph N/A   Clear
8:35 AM 40.6 °F 33.0 °F 26.6 °F 57% 30.16 in 10.0 mi NNW 13.8 mph 17.3 mph N/A   Clear
8:55 AM 42.3 °F 34.8 °F 26.4 °F 54% 30.16 in 10.0 mi NNW 15.0 mph 19.6 mph N/A   Clear
9:15 AM 43.7 °F 36.6 °F 25.9 °F 50% 30.16 in 10.0 mi NNW 15.0 mph 23.0 mph N/A   Clear
9:35 AM 44.4 °F 38.6 °F 26.4 °F 49% 30.16 in 10.0 mi NNW 11.5 mph 18.4 mph N/A   Clear
9:55 AM 45.3 °F 39.3 °F 25.7 °F 46% 30.16 in 10.0 mi NNW 12.7 mph 17.3 mph N/A   Clear
10:15 AM 46.6 °F - 25.5 °F 44% 30.16 in 10.0 mi North 12.7 mph 20.7 mph N/A   Clear
10:35 AM 47.5 °F - 25.7 °F 43% 30.15 in 10.0 mi North 15.0 mph 24.2 mph N/A   Clear
10:55 AM 47.3 °F - 25.3 °F 42% 30.15 in 10.0 mi NNW 13.8 mph 20.7 mph N/A   Clear
11:15 AM 47.8 °F - 25.3 °F 41% 30.15 in 10.0 mi North 15.0 mph 23.0 mph N/A   Clear
11:35 AM 48.9 °F - 25.7 °F 40% 30.14 in 10.0 mi North 13.8 mph 17.3 mph N/A   Clear
11:55 AM 49.6 °F - 26.8 °F 41% 30.14 in 10.0 mi NW 10.4 mph 20.7 mph N/A   Clear
12:15 PM 50.0 °F - 27.0 °F 41% 30.13 in 10.0 mi NNW 12.7 mph 19.6 mph N/A   Clear
12:35 PM 50.9 °F - 26.8 °F 39% 30.12 in 10.0 mi WNW 13.8 mph 23.0 mph N/A   Clear
12:55 PM 52.3 °F - 27.9 °F 39% 30.11 in 10.0 mi WNW 10.4 mph - N/A   Clear
1:15 PM 51.6 °F - 27.3 °F 39% 30.10 in 10.0 mi NW 10.4 mph - N/A   Clear
1:35 PM 52.5 °F - 27.3 °F 38% 30.09 in 10.0 mi NW 6.9 mph 18.4 mph N/A   Clear
1:55 PM 53.8 °F - 27.7 °F 37% 30.08 in 10.0 mi North 10.4 mph 20.7 mph N/A   Clear
2:15 PM 54.3 °F - 27.3 °F 35% 30.08 in 10.0 mi NW 4.6 mph 19.6 mph N/A   Clear
2:35 PM 54.5 °F - 27.7 °F 36% 30.08 in 10.0 mi WNW 13.8 mph 20.7 mph N/A   Clear
2:55 PM 54.5 °F - 26.8 °F 34% 30.08 in 10.0 mi WNW 13.8 mph 20.7 mph N/A   Clear
3:15 PM 54.5 °F - 27.1 °F 35% 30.08 in 10.0 mi WNW 11.5 mph 18.4 mph N/A   Clear
3:35 PM 54.5 °F - 27.3 °F 35% 30.08 in 10.0 mi NNW 10.4 mph 19.6 mph N/A   Clear
3:55 PM 54.7 °F - 27.7 °F 35% 30.08 in 10.0 mi WNW 11.5 mph 20.7 mph N/A   Clear
4:15 PM 54.3 °F - 27.3 °F 35% 30.09 in 10.0 mi NW 13.8 mph - N/A   Clear
4:35 PM 54.0 °F - 27.5 °F 36% 30.09 in 10.0 mi NW 11.5 mph - N/A   Clear
4:55 PM 53.6 °F - 27.1 °F 36% 30.10 in 10.0 mi NNW 10.4 mph 18.4 mph N/A   Clear
5:15 PM 53.1 °F - 27.3 °F 37% 30.10 in 10.0 mi NW 8.1 mph - N/A   Clear
5:35 PM 52.3 °F - 27.9 °F 39% 30.11 in 10.0 mi NW 9.2 mph - N/A   Clear
5:55 PM 51.1 °F - 28.4 °F 42% 30.12 in 10.0 mi NW 5.8 mph - N/A   Clear
6:15 PM 50.0 °F - 28.4 °F 43% 30.13 in 10.0 mi NW 5.8 mph - N/A   Clear
6:35 PM 49.1 °F - 29.3 °F 46% 30.13 in 10.0 mi NW 4.6 mph - N/A   Clear
6:55 PM 47.5 °F - 30.0 °F 51% 30.14 in 10.0 mi WNW 3.5 mph - N/A   Clear
8:35 PM 43.2 °F 40.5 °F 30.7 °F 62% 30.17 in 10.0 mi NW 4.6 mph - N/A   Clear
8:55 PM 42.1 °F 39.2 °F 30.7 °F 64% 30.17 in 10.0 mi NW 4.6 mph - N/A   Clear
9:15 PM 41.9 °F 40.0 °F 30.4 °F 64% 30.18 in 10.0 mi NW 3.5 mph - N/A   Clear
9:35 PM 40.3 °F 38.2 °F 31.1 °F 70% 30.19 in 10.0 mi NNW 3.5 mph - N/A   Clear
9:55 PM 40.6 °F 37.5 °F 30.6 °F 67% 30.19 in 10.0 mi NNW 4.6 mph - N/A   Clear
10:15 PM 40.1 °F 36.9 °F 30.2 °F 68% 30.20 in 10.0 mi NNW 4.6 mph - N/A   Clear
10:35 PM 38.8 °F 36.5 °F 30.2 °F 71% 30.20 in 10.0 mi NNW 3.5 mph - N/A   Clear
10:55 PM 38.7 °F 36.3 °F 29.8 °F 71% 30.21 in 10.0 mi NNW 3.5 mph - N/A   Clear
11:15 PM 37.8 °F 34.2 °F 29.7 °F 73% 30.21 in 10.0 mi NNW 4.6 mph - N/A   Clear
11:35 PM 37.6 °F 35.1 °F 29.3 °F 72% 30.20 in 10.0 mi NW 3.5 mph - N/A   Clear
11:55 PM 37.4 °F 34.9 °F 28.9 °F 71% 30.20 in 10.0 mi NW 3.5 mph - N/A   Clear